This is the latest recevied weather packets stored in our database for station/object SV9TNF-52. If no packets are shown the sender has not sent any weather packets the latest 10 day(s).
| Time | Temp. | Humidity | Pressure | Rain* | Wind** | Luminosity | Snow |
|---|---|---|---|---|---|---|---|
| 1788558745 | 22.78° C | 64% | 1021 hPa | 0 mm | 3.58 m/s, 240° | - | - |
| 1788558445 | 22.78° C | 64% | 1021 hPa | 0 mm | 4.92 m/s, 229° | - | - |
| 1788558145 | 22.78° C | 64% | 1021 hPa | 0 mm | 4.92 m/s, 89° | - | - |
| 1788557845 | 22.78° C | 64% | 1021 hPa | 0 mm | 4.47 m/s, 196° | - | - |
| 1788557545 | 22.78° C | 64% | 1021 hPa | 0 mm | 3.58 m/s, 235° | - | - |
| 1788557245 | 22.78° C | 64% | 1021 hPa | 0 mm | 6.26 m/s, 220° | - | - |
| 1788556945 | 22.78° C | 64% | 1021 hPa | 0 mm | 4.02 m/s, 104° | - | - |
| 1788556645 | 22.78° C | 63% | 1021 hPa | 0 mm | 8.94 m/s, 204° | - | - |
| 1788556345 | 22.78° C | 64% | 1021 hPa | 0 mm | 6.26 m/s, 230° | - | - |
| 1788556044 | 22.78° C | 64% | 1021 hPa | 0 mm | 4.92 m/s, 76° | - | - |
| 1788555744 | 23.33° C | 63% | 1021 hPa | 0 mm | 4.92 m/s, 179° | - | - |
| 1788555445 | 23.33° C | 63% | 1021 hPa | 0 mm | 5.36 m/s, 199° | - | - |
| 1788555144 | 23.33° C | 63% | 1021 hPa | 0 mm | 4.92 m/s, 157° | - | - |
| 1788554844 | 23.33° C | 62% | 1021 hPa | 0 mm | 8.05 m/s, 216° | - | - |
| 1788554544 | 23.33° C | 62% | 1021 hPa | 0 mm | 2.68 m/s, 180° | - | - |
| 1788554244 | 23.33° C | 62% | 1021 hPa | 0 mm | 3.58 m/s, 216° | - | - |
| 1788553944 | 23.33° C | 62% | 1021 hPa | 0 mm | 5.36 m/s, 177° | - | - |
| 1788553644 | 23.33° C | 62% | 1021 hPa | 0 mm | 5.81 m/s, 212° | - | - |
| 1788553343 | 23.33° C | 62% | 1021 hPa | 0 mm | 6.26 m/s, 231° | - | - |
| 1788553062 | 23.33° C | 62% | 1021 hPa | 0 mm | 8.94 m/s, 223° | - | - |
| 1788552743 | 23.89° C | 61% | 1021 hPa | 0 mm | 6.71 m/s, 191° | - | - |
| 1788552443 | 23.89° C | 62% | 1021 hPa | 0 mm | 2.24 m/s, 69° | - | - |
| 1788552143 | 23.89° C | 61% | 1021 hPa | 0 mm | 1.34 m/s, 229° | - | - |
| 1788551843 | 24.44° C | 61% | 1021 hPa | 0 mm | 4.02 m/s, 245° | - | - |
| 1788551543 | 24.44° C | 62% | 1021 hPa | 0 mm | 1.79 m/s, 165° | - | - |
* Rain latest hour (hover to see other rain measurements)
** Current wind speed in m/s (hover to see current wind gust speed)